Regional Weather Roundup
Issued by NWS

Home | Current Version | Previous Version | Text Only | Print | Product List | Glossary Off
Versions: 1 2 3 4 5 6 7 8 9 10 11 12 13 14 15 16 17 18 19 20 21 22 23 24 25 26 27 28 29 30 31 32 33 34 35 36 37 38 39 40 41 42 43 44 45 46 47 48 49 50

000
ASUS43 KLSX 180057
RWRMO

WEATHER SUMMARY FOR MISSOURI
NATIONAL WEATHER SERVICE SPRINGFIELD MO
700 PM CST WED JAN 17 2018

NOTE: "FAIR" INDICATES FEW OR NO CLOUDS BELOW 12,000 FEET WITH NO
       SIGNIFICANT WEATHER AND/OR OBSTRUCTIONS TO VISIBILITY.
       CURRENT SKY AND/OR WEATHER CONDITIONS ARE NOT AVAILABLE FOR
       CHILLICOTHE AND FARMINGTON.

MOZ001>031-035>038-043-044-053-054-180200-
...NORTHERN AND WESTERN MISSOURI...

CITY           SKY/WX    TMP DP  RH WIND       PRES   REMARKS
KANSAS CTY INT CLOUDY    19   9  65 SW13      30.47F WCI   6
LEE`S SUMMIT   CLOUDY    18   8  65 S7        30.50S WCI   9
ST JOSEPH      CLOUDY    19  11  70 S10       30.47F WCI   7
CHILLICOTHE      N/A     20  10  65 S9        30.49F WCI   9

$$
MOZ066>068-077>081-088>096-101>105-180200-
...SOUTHWEST MISSOURI...

CITY           SKY/WX    TMP DP  RH WIND       PRES   REMARKS
SPRINGFIELD    CLOUDY    11   4  73 CALM      30.53S
JOPLIN         CLOUDY    17   9  70 CALM      30.57R
BRANSON        CLEAR     16   9  73 CALM      30.55S

$$
MOZ032>034-039>042-045>050-055>058-069>072-180200-
...CENTRAL MISSOURI...

CITY           SKY/WX    TMP DP  RH WIND       PRES   REMARKS
COLUMBIA       NOT AVBL
JEFFERSON CITY CLOUDY    21   9  59 CALM      30.56S
ROLLA          CLOUDY    13   6  74 SW7       30.52F WCI   3
SEDALIA        CLOUDY    18  11  74 SW5       30.53S WCI  11
WARRENSBURG    CLEAR     18   9  68 S6        30.54S WCI   9

$$
MOZ051-052-059>065-180200-
...EAST CENTRAL MISSOURI...

CITY           SKY/WX    TMP DP  RH WIND       PRES   REMARKS
ST LOUIS INTL  CLOUDY    20  10  65 W3        30.55F

$$
MOZ072>076-082>087-097>100-106>115-180200-
...SOUTH CENTRAL AND SOUTHEAST MISSOURI...

CITY           SKY/WX    TMP DP  RH WIND       PRES   REMARKS
CAPE GIRARDEAU FAIR      11   5  77 S6        30.62F WCI   1
POPLAR BLUFF   FAIR      15   9  76 S3        30.61F
WEST PLAINS    CLOUDY    17   6  62 SW3       30.54F

$$



USA.gov is the U.S. government's official web portal to all federal, state and local government web resources and services.